UFO 4 (USA 108)

Last updated on Sat Aug 15 2026 00:02:56 GMT+0000 (Coordinated Universal Time)

1 23467U 95003A 26226.55898881 -.00000036 00000+0 00000+0 0 9997 2 23467 9.6728 12.8907 0002844 125.5279 198.0077 1.00272577115530
UTC large
Height (km)
Speed (km/s)
/
Latitude / Longitude
Inclination (degrees)
Orbital Period (minutes)
Azimuth
Elevation
Range (km)
Doppler Factor

Next 0 passes for location: London (51.5072 / 0.1276)

No passes found over London.
UFO 4 (USA 108)